KN4CI-1 Weather Reports


Display with metric or nautical units.
time (UTC)temp
F
wind
direction
speed
MPH
gust
MPH
rain 1hr
in
rain 24hr
in
rain mn
in
humidity
%
barometer
mb
20260503013506 55 347 0.0 0.0 0.00 0.00 0.00 20 1017.6
20260503012501 56 351 0.0 0.0 0.00 0.00 0.00 20 1017.6
20260503010953 56 351 0.0 0.0 0.00 0.00 0.00 19 1016.6
20260503010450 57 351 0.0 0.0 0.00 0.00 0.00 19 1016.6
20260503005950 58 351 0.0 0.0 0.00 0.00 0.00 19 1016.6
20260503005450 58 351 0.0 0.0 0.00 0.00 0.00 19 1016.6
20260503004946 59 347 0.0 0.0 0.00 0.00 0.00 19 1016.6
20260503004446 59 351 0.0 0.0 0.00 0.00 0.00 19 1016.6
20260503003947 59 351 0.0 0.0 0.00 0.00 0.00 19 1016.6
20260503002944 60 347 0.0 3.0 0.00 0.00 0.00 19 1016.6
20260503001936 62 351 0.0 3.0 0.00 0.00 0.00 18 1016.6
20260503001434 62 351 3.0 7.0 0.00 0.00 0.00 18 1016.6
20260503000430 63 356 3.0 5.0 0.00 0.00 0.00 18 1016.6
20260502235929 63 356 4.0 5.0 0.00 0.00 0.00 18 1016.6
20260502235429 64 356 3.0 5.0 0.00 0.00 0.00 18 1016.6
20260502234926 65 356 3.0 7.0 0.00 0.00 0.00 18 1015.6
20260502234427 65 351 4.0 6.0 0.00 0.00 0.00 17 1015.6
20260502233424 66 1 3.0 7.0 0.00 0.00 0.00 17 1015.6
20260502232425 67 341 7.0 10.0 0.00 0.00 0.00 17 1015.6
20260502231423 67 14 4.0 8.0 0.00 0.00 0.00 17 1015.6
20260502230923 67 338 4.0 6.0 0.00 0.00 0.00 17 1015.6
20260502230419 67 356 5.0 9.0 0.00 0.00 0.00 17 1015.6
20260502230021 66 32 5.0 9.0 0.00 0.00 0.00 17 1015.6
20260502225920 66 32 5.0 9.0 0.00 0.00 0.00 17 1015.6
20260502225420 65 347 3.0 7.0 0.00 0.00 0.00 17 1015.6
20260502224911 66 332 3.0 5.0 0.00 0.00 0.00 17 1015.6
20260502224407 66 351 3.0 6.0 0.00 0.00 0.00 17 1015.6
20260502223907 67 316 4.0 10.0 0.00 0.00 0.00 17 1015.6
20260502222905 67 341 4.0 8.0 0.00 0.00 0.00 17 1015.6
20260502222405 67 338 7.0 10.0 0.00 0.00 0.00 17 1015.6
20260502221902 68 324 4.0 10.0 0.00 0.00 0.00 17 1015.6
20260502221402 69 1 5.0 9.0 0.00 0.00 0.00 17 1015.6
20260502220902 68 336 5.0 9.0 0.00 0.00 0.00 17 1015.6
20260502220356 68 308 6.0 7.0 0.00 0.00 0.00 17 1015.6
20260502215842 68 336 4.0 10.0 0.00 0.00 0.00 17 1015.6
20260502215341 67 351 6.0 9.0 0.00 0.00 0.00 17 1015.6
20260502214837 67 329 5.0 10.0 0.00 0.00 0.00 17 1015.6
20260502214337 67 324 5.0 12.0 0.00 0.00 0.00 17 1015.6
20260502213833 68 351 5.0 12.0 0.00 0.00 0.00 17 1015.6
20260502212828 70 324 4.0 10.0 0.00 0.00 0.00 17 1015.6
20260502211825 69 344 7.0 9.0 0.00 0.00 0.00 17 1015.6
20260502210817 69 34 7.0 11.0 0.00 0.00 0.00 17 1015.6
20260502210309 69 1 5.0 12.0 0.00 0.00 0.00 17 1015.6
20260502204307 69 297 7.0 14.0 0.00 0.00 0.00 17 1015.6
20260502203808 69 334 3.0 12.0 0.00 0.00 0.00 17 1015.6
20260502203347 69 356 4.0 10.0 0.00 0.00 0.00 17 1016.6
20260502203300 69 356 4.0 10.0 0.00 0.00 0.00 17 1016.6
20260502202800 69 325 5.0 12.0 0.00 0.00 0.00 17 1016.6
20260502201827 67 356 3.0 12.0 0.00 0.00 0.00 17 1016.6
20260502201756 67 356 3.0 12.0 0.00 0.00 0.00 17 1016.6
20260502201256 67 333 7.0 16.0 0.00 0.00 0.00 17 1016.6
20260502200757 69 351 8.0 12.0 0.00 0.00 0.00 17 1016.6
20260502200254 70 8 7.0 14.0 0.00 0.00 0.00 17 1016.6
20260502195755 70 344 4.0 13.0 0.00 0.00 0.00 17 1016.6
20260502194246 68 346 7.0 11.0 0.00 0.00 0.00 17 1016.6
20260502193230 69 339 7.0 9.0 0.00 0.00 0.00 17 1016.6
20260502192230 68 330 6.0 12.0 0.00 0.00 0.00 17 1016.6
20260502191724 68 346 8.0 12.0 0.00 0.00 0.00 17 1016.6
20260502190215 66 356 4.0 14.0 0.00 0.00 0.00 17 1016.6
20260502185715 66 339 7.0 20.0 0.00 0.00 0.00 17 1016.6
20260502185215 66 347 5.0 12.0 0.00 0.00 0.00 17 1016.6
20260502184209 67 7 6.0 10.0 0.00 0.00 0.00 17 1016.6
20260502183206 67 356 5.0 9.0 0.00 0.00 0.00 17 1016.6
20260502182203 67 351 6.0 11.0 0.00 0.00 0.00 17 1017.6
20260502180158 68 343 3.0 11.0 0.00 0.00 0.00 17 1017.6
20260502170119 65 344 7.0 12.0 0.00 0.00 0.00 18 1017.6
20260502164111 65 66 6.0 10.0 0.00 0.00 0.00 18 1017.6
20260502163051 64 343 4.0 13.0 0.00 0.00 0.00 18 1017.6
20260502162551 65 66 4.0 7.0 0.00 0.00 0.00 18 1017.6
20260502161547 64 71 6.0 12.0 0.00 0.00 0.00 18 1017.6
20260502152027 61 48 4.0 17.0 0.00 0.00 0.00 19 1017.6
20260502151522 61 71 6.0 11.0 0.00 0.00 0.00 19 1017.6
20260502130414 56 351 4.0 7.0 0.00 0.00 0.00 20 1016.6
20260502122859 53 351 3.0 7.0 0.00 0.00 0.00 20 1016.6
20260502122357 53 351 4.0 7.0 0.00 0.00 0.00 20 1016.6
20260502121857 52 334 4.0 6.0 0.00 0.00 0.00 21 1016.6
20260502121353 52 334 0.0 5.0 0.00 0.00 0.00 21 1016.6
20260502120849 51 337 0.0 5.0 0.00 0.00 0.00 21 1016.6
20260502120349 51 356 4.0 4.0 0.00 0.00 0.00 21 1016.6
20260502115844 51 337 0.0 3.0 0.00 0.00 0.00 21 1016.6
20260502115344 51 336 0.0 0.0 0.00 0.00 0.00 21 1016.6
20260502114844 50 336 0.0 4.0 0.00 0.00 0.00 21 1016.6
20260502114340 50 336 0.0 0.0 0.00 0.00 0.00 21 1016.6
20260502113840 51 336 0.0 0.0 0.00 0.00 0.00 21 1016.6
20260502113341 51 336 0.0 5.0 0.00 0.00 0.00 21 1015.6
20260502112836 51 336 0.0 4.0 0.00 0.00 0.00 21 1015.6
20260502112337 51 351 3.0 3.0 0.00 0.00 0.00 21 1015.6
20260502111837 51 351 0.0 4.0 0.00 0.00 0.00 21 1015.6
20260502111450 51 351 0.0 4.0 0.00 0.00 0.00 18 1015.6
20260502111332 51 351 0.0 4.0 0.00 0.00 0.00 18 1015.6
20260502110833 51 351 3.0 4.0 0.00 0.00 0.00 21 1015.6
20260502110333 51 351 0.0 6.0 0.00 0.00 0.00 21 1015.6
20260502105828 51 356 3.0 5.0 0.00 0.00 0.00 21 1015.6
20260502104322 51 1 0.0 3.0 0.00 0.00 0.00 21 1015.6
20260502103822 51 1 0.0 4.0 0.00 0.00 0.00 21 1015.6
20260502103322 51 1 0.0 4.0 0.00 0.00 0.00 21 1015.6
20260502102818 51 7 0.0 4.0 0.00 0.00 0.00 21 1015.6
20260502101815 51 7 3.0 4.0 0.00 0.00 0.00 21 1015.6
20260502101308 51 7 3.0 4.0 0.00 0.00 0.00 21 1015.6
20260502100809 51 7 0.0 0.0 0.00 0.00 0.00 21 1015.6
20260502100309 52 8 0.0 3.0 0.00 0.00 0.00 21 1015.6
20260502091251 53 8 4.0 4.0 0.00 0.00 0.00 18 1015.6
20260502090751 53 8 3.0 4.0 0.00 0.00 0.00 18 1015.6
20260502090252 53 34 4.0 4.0 0.00 0.00 0.00 18 1015.6
20260502070657 56 356 3.0 5.0 0.00 0.00 0.00 20 1015.6
20260502070158 56 340 4.0 5.0 0.00 0.00 0.00 20 1015.6
20260502065654 56 18 3.0 7.0 0.00 0.00 0.00 20 1015.6
20260502065154 56 43 4.0 6.0 0.00 0.00 0.00 20 1016.6
20260502064655 56 9 4.0 5.0 0.00 0.00 0.00 20 1016.6
20260502064146 56 34 3.0 6.0 0.00 0.00 0.00 20 1016.6
20260502063646 56 341 5.0 6.0 0.00 0.00 0.00 20 1016.6
20260502063145 56 43 3.0 6.0 0.00 0.00 0.00 20 1016.6
20260502062638 56 345 4.0 6.0 0.00 0.00 0.00 19 1016.6
20260502062138 56 347 5.0 5.0 0.00 0.00 0.00 19 1016.6
20260502061637 56 351 4.0 5.0 0.00 0.00 0.00 19 1016.6
20260502061134 56 351 4.0 10.0 0.00 0.00 0.00 19 1016.6
20260502060631 56 64 0.0 6.0 0.00 0.00 0.00 19 1016.6
20260502055625 57 13 3.0 6.0 0.00 0.00 0.00 19 1016.6
20260502055125 57 119 3.0 6.0 0.00 0.00 0.00 19 1016.6
20260502054626 57 78 4.0 5.0 0.00 0.00 0.00 19 1016.6
20260502052612 57 27 3.0 6.0 0.00 0.00 0.00 19 1015.6
20260502052112 57 351 4.0 6.0 0.00 0.00 0.00 19 1015.6
20260502051612 57 44 3.0 5.0 0.00 0.00 0.00 19 1015.6
20260502051109 57 93 4.0 7.0 0.00 0.00 0.00 19 1015.6
20260502050610 57 12 4.0 6.0 0.00 0.00 0.00 19 1015.6
20260502045602 57 351 3.0 7.0 0.00 0.00 0.00 19 1015.6
20260502045058 57 72 5.0 7.0 0.00 0.00 0.00 19 1015.6
20260502044556 58 58 4.0 5.0 0.00 0.00 0.00 19 1015.6
20260502042544 58 56 3.0 7.0 0.00 0.00 0.00 19 1015.6
20260502042045 58 63 4.0 6.0 0.00 0.00 0.00 19 1015.6
20260502041041 58 25 3.0 6.0 0.00 0.00 0.00 19 1015.6
20260502040534 58 351 4.0 6.0 0.00 0.00 0.00 19 1015.6
20260502040034 58 351 4.0 6.0 0.00 0.00 0.00 19 1015.6
20260502035531 58 0 4.0 6.0 0.00 0.00 0.00 19 1015.6
20260502035031 58 347 4.0 8.0 0.00 0.00 0.00 19 1015.6
20260502034025 58 338 3.0 9.0 0.00 0.00 0.00 19 1015.6
20260502033522 58 23 6.0 6.0 0.00 0.00 0.00 19 1015.6
20260502032516 58 58 5.0 8.0 0.00 0.00 0.00 19 1015.6
20260502031510 59 351 3.0 8.0 0.00 0.00 0.00 19 1015.6
20260502031007 59 351 4.0 9.0 0.00 0.00 0.00 19 1015.6
20260502030502 59 345 6.0 10.0 0.00 0.00 0.00 19 1015.6
20260502030003 59 316 7.0 8.0 0.00 0.00 0.00 19 1015.6
20260502025001 59 343 6.0 7.0 0.00 0.00 0.00 19 1015.6
20260502024500 59 351 4.0 7.0 0.00 0.00 0.00 19 1015.6
20260502023954 59 336 4.0 7.0 0.00 0.00 0.00 19 1015.6
20260502023455 59 345 4.0 7.0 0.00 0.00 0.00 19 1015.6
20260502022955 59 327 5.0 7.0 0.00 0.00 0.00 19 1015.6
20260502022451 59 334 4.0 6.0 0.00 0.00 0.00 19 1015.6
20260502021951 59 334 4.0 6.0 0.00 0.00 0.00 19 1015.6
20260502021451 59 326 4.0 7.0 0.00 0.00 0.00 19 1015.6
20260502020947 59 340 5.0 8.0 0.00 0.00 0.00 19 1015.6
20260502020442 59 351 6.0 9.0 0.00 0.00 0.00 22 1015.6
20260502015942 59 356 5.0 8.0 0.00 0.00 0.00 24 1015.6
20260502015437 59 342 7.0 8.0 0.00 0.00 0.00 25 1015.6
20260502014937 58 0 4.0 6.0 0.00 0.00 0.00 29 1014.6
20260502014437 58 345 4.0 6.0 0.00 0.00 0.00 31 1014.6